カタログに戻る

STARLINK-33879

運用中通信VLEO
NORAD 63634·PAYLOAD·🇺🇸 United States

打ち上げ Apr 25, 2025 から Cape Canaveral Space Force Station

Loading…

次のパス (今後24時間)

TLE

最新Source: CelesTrak SupGP

元期: Sep 14, 2026, 22:36 UTC

1 63634C 25083A   26257.94215278  .00006531  00000+0  23648-3 0  2577
2 63634  43.0041  16.7596 0001701 278.6239 185.5189 15.27584772    12

AllMySatでSTARLINK-33879をリアルタイム追跡

Download on the App Store